Regional Weather Roundup
Issued by NWS Midland/Odessa, TX

Skip options and go directly to product.
Home | Oldest Version | Previous Version | Current Version | All | Text Only | Save Text | Print | Product List | Glossary Off

Skip product version selection by date and time.   

753
ASUS44 KMAF 301802
RWRMAF
MIDLAND AREA WEATHER ROUNDUP
NATIONAL WEATHER SERVICE MIDLAND TX
100 PM CDT TUE SEP 30 2014

...IN SOUTHWEST TEXAS AND SOUTHEAST NEW MEXICO...

CITY           SKY/WX    TMP DP  RH WIND       PRES   REMARKS
ALPINE         SUNNY     82  55  40 CALM      30.05F
ANDREWS        FAIR      83  59  43 W9        29.90F
ARTESIA        NOT AVBL
BIG SPRING     SUNNY     84  60  44 S14       29.90F
CARLSBAD       SUNNY     81  54  39 CALM      29.89F
DRYDEN           N/A     85  61  44 SE9       29.88F
FORT STOCKTON  MOSUNNY   88  56  33 NW9       29.90F
GUAD PASS      SUNNY     75  56  51 SW22G32   30.04F
HOBBS          SUNNY     81  61  50 SW8       29.92F
MARFA          SUNNY     81  55  41 W12       30.05F
MIDLAND AIRPK  SUNNY     85  60  42 S12       29.89F
MIDLAND INTL   SUNNY     85  60  42 SW8       29.88F
ODESSA         SUNNY     83  59  44 SW10      29.90F
PECOS          SUNNY     83  61  47 CALM      29.88F
PRESIDIO       FAIR      82  58  44 S5        29.92F
SEMINOLE       SUNNY     81  60  48 W10       29.90F
SNYDER         MOSUNNY   79  64  59 S14       29.89F
WINK           SUNNY     84  60  44 SW6       29.87F
$$
...OTHER STATIONS IN TEXAS...

CITY           SKY/WX    TMP DP  RH WIND       PRES   REMARKS
ABILENE        SUNNY     86  59  39 S15G23    29.88F
AMARILLO       SUNNY     81  48  31 SW13      29.86F
AUSTIN         PTSUNNY   86  68  54 NE3       29.87F
BROWNSVILLE    MOSUNNY   86  77  74 SW3       29.83F
CORPUS CHRISTI PTSUNNY   84  73  69 E7        29.84F
DALLAS FTW     PTSUNNY   87  65  47 S9        29.86F
DEL RIO        SUNNY     85  68  56 S14       29.85F
EL PASO        MOSUNNY   81  52  36 SW14G24   29.95F
HOUSTON INT    PTSUNNY   84  72  67 SE8       29.86F
LUBBOCK        MOSUNNY   77  61  57 SW8       29.88F
SAN ANGELO     SUNNY     86  61  42 S10       29.88F
SAN ANTONIO    PTSUNNY   87  65  47 CALM      29.88F
WACO           PTSUNNY   87  66  49 S6        29.86F
WICHITA FALLS  NOT AVBL
$$
...OTHER LOCATIONS IN NEW MEXICO...

CITY           SKY/WX    TMP DP  RH WIND       PRES   REMARKS
ALAMAGORDO     SUNNY     77  41  27 S10       29.97F
ALBUQUERQUE    SUNNY     65  31  28 VRB3      30.03F
CANNON AFB     NOT AVBL
CLOVIS           N/A     75  41  29 W10G18    29.94F
HOLLOMAN AFB   SUNNY     78  40  25 S6        29.94F
ROSWELL        SUNNY     78  41  26 NE5       29.91F
RUIDOSO        SUNNY     66  41  39 N8        30.09F
SANTA FE       SUNNY     65  29  25 W9        30.03F
TRUTH OR CONSE SUNNY     71  38  29 CALM      29.99F
TUCUMCARI      SUNNY     76  39  26 W16       29.87F
$$

USA.gov is the U.S. government's official web portal to all federal, state and local government web resources and services.